FW4117 Weather Reports


Display with metric or nautical units.
time (UTC)temp
F
wind
direction
speed
MPH
gust
MPH
rain 1hr
in
rain 24hr
in
rain mn
in
humidity
%
barometer
mb
20260507183503 73 330 2.0 7.0 0.00 0.00 0.00 52 1017.0
20260507183003 73 332 2.0 7.0 0.00 0.00 0.00 50 1017.1
20260507182713 72 336 1.0 5.0 0.00 0.00 0.00 51 1017.1
20260507182003 72 348 2.0 8.0 0.00 0.00 0.00 50 1017.1
20260507181503 73 342 2.0 9.0 0.00 0.00 0.00 49 1017.1
20260507181003 73 328 2.0 9.0 0.00 0.00 0.00 50 1017.2
20260507180712 72 325 2.0 9.0 0.00 0.00 0.00 52 1017.2
20260507180003 72 333 1.0 7.0 0.00 0.00 0.00 53 1017.4
20260507175503 71 343 1.0 7.0 0.00 0.00 0.00 52 1017.4
20260507175003 72 8 1.0 7.0 0.00 0.00 0.00 54 1017.4
20260507174503 72 23 1.0 5.0 0.00 0.00 0.00 52 1017.6
20260507174003 72 27 1.0 5.0 0.00 0.00 0.00 53 1017.8
20260507173503 71 35 1.0 5.0 0.00 0.00 0.00 55 1017.9
20260507173003 71 35 1.0 6.0 0.00 0.00 0.00 54 1018.1
20260507172503 70 34 1.0 6.0 0.00 0.00 0.00 52 1018.1
20260507172003 71 38 1.0 5.0 0.00 0.00 0.00 55 1018.2
20260507171503 70 2 1.0 6.0 0.00 0.00 0.00 55 1018.5
20260507171003 70 335 1.0 6.0 0.00 0.00 0.00 54 1018.6
20260507170503 70 314 1.0 6.0 0.00 0.00 0.00 55 1018.8
20260507170213 70 321 1.0 6.0 0.00 0.00 0.00 56 1018.8
20260507165503 69 352 1.0 5.0 0.00 0.00 0.00 54 1018.9
20260507165003 69 1 1.0 5.0 0.00 0.00 0.00 58 1019.0
20260507164503 69 8 1.0 4.0 0.00 0.00 0.00 55 1019.0
20260507164003 68 1 1.0 5.0 0.00 0.00 0.00 58 1019.1
20260507163714 68 1 1.0 5.0 0.00 0.00 0.00 56 1019.0
20260507163003 68 9 1.0 5.0 0.00 0.00 0.00 58 1019.1
20260507162503 68 348 1.0 6.0 0.00 0.00 0.00 61 1019.1
20260507162003 68 352 1.0 6.0 0.00 0.00 0.00 59 1019.1
20260507161503 67 343 1.0 7.0 0.00 0.00 0.00 60 1019.2
20260507161003 67 341 1.0 7.0 0.00 0.00 0.00 62 1019.1
20260507160503 68 4 1.0 6.0 0.00 0.00 0.00 59 1019.1
20260507160003 68 33 1.0 6.0 0.00 0.00 0.00 62 1019.2
20260507155503 66 36 2.0 6.0 0.00 0.00 0.00 64 1019.1
20260507155003 66 9 2.0 6.0 0.00 0.00 0.00 63 1019.2
20260507154503 66 348 2.0 5.0 0.00 0.00 0.00 66 1019.1
20260507154003 66 339 1.0 6.0 0.00 0.00 0.00 66 1019.2
20260507153503 65 351 1.0 6.0 0.00 0.00 0.00 66 1019.2
20260507153003 65 349 1.0 4.0 0.00 0.00 0.00 66 1019.2
20260507152503 65 3 1.0 4.0 0.00 0.00 0.00 69 1019.3
20260507152003 64 47 1.0 3.0 0.00 0.00 0.00 69 1019.6
20260507151503 64 23 1.0 5.0 0.00 0.00 0.00 71 1019.6
20260507151003 63 357 1.0 5.0 0.00 0.01 0.00 72 1019.6
20260507150503 62 347 1.0 3.0 0.00 0.03 0.00 73 1019.6
20260507150003 62 355 1.0 4.0 0.00 0.03 0.00 73 1019.7
20260507145503 61 42 1.0 4.0 0.00 0.03 0.00 75 1019.6
20260507145003 60 27 1.0 4.0 0.00 0.03 0.00 75 1019.6
20260507144503 60 353 1.0 6.0 0.00 0.03 0.00 75 1019.8
20260507144003 60 342 1.0 6.0 0.00 0.03 0.00 75 1019.6
20260507143503 61 337 1.0 5.0 0.00 0.03 0.00 75 1019.8
20260507143003 60 327 1.0 5.0 0.00 0.03 0.00 76 1019.8
20260507142503 61 317 1.0 4.0 0.00 0.03 0.00 76 1019.8
20260507142003 60 334 1.0 4.0 0.00 0.03 0.00 77 1019.9
20260507141503 60 337 1.0 5.0 0.00 0.03 0.00 78 1019.9
20260507141003 59 321 1.0 5.0 0.00 0.03 0.00 78 1019.9
20260507140503 59 314 1.0 5.0 0.00 0.03 0.00 79 1020.0
20260507140214 59 330 1.0 4.0 0.00 0.03 0.00 79 1020.1
20260507135503 58 5 1.0 3.0 0.00 0.03 0.00 80 1020.0
20260507135003 57 326 1.0 3.0 0.00 0.03 0.00 82 1020.2
20260507134503 57 320 0.0 3.0 0.00 0.03 0.00 81 1020.1
20260507134003 57 318 0.0 2.0 0.00 0.03 0.00 83 1020.1
20260507133713 56 315 0.0 2.0 0.00 0.03 0.00 83 1020.1
20260507133003 55 303 0.0 2.0 0.00 0.03 0.00 84 1020.1
20260507132503 55 308 0.0 2.0 0.00 0.03 0.00 85 1020.3
20260507132003 55 312 0.0 1.0 0.00 0.03 0.00 86 1020.3
20260507131713 55 312 0.0 1.0 0.00 0.03 0.00 86 1020.3
20260507131003 54 312 0.0 1.0 0.00 0.03 0.00 88 1020.0
20260507130503 54 312 0.0 1.0 0.00 0.03 0.00 88 1020.2
20260507130003 54 312 0.0 1.0 0.00 0.03 0.00 89 1020.1
20260507125503 53 312 0.0 1.0 0.00 0.03 0.00 90 1020.0
20260507125213 53 0 0.0 0.0 0.00 0.03 0.00 90 1019.9
20260507124712 53 0 0.0 0.0 0.00 0.03 0.00 91 1019.8
20260507124003 52 0 0.0 0.0 0.00 0.03 0.00 91 1019.7
20260507123503 52 312 0.0 1.0 0.00 0.03 0.00 91 1019.6
20260507123003 52 312 0.0 1.0 0.00 0.03 0.00 91 1019.6
20260507122503 51 312 0.0 1.0 0.00 0.03 0.00 91 1019.6
20260507122213 51 312 0.0 1.0 0.00 0.03 0.00 91 1019.6
20260507121712 51 312 0.0 1.0 0.00 0.03 0.00 91 1019.7
20260507121003 51 0 0.0 0.0 0.00 0.03 0.00 90 1019.5
20260507120503 51 0 0.0 0.0 0.00 0.03 0.00 90 1019.5
20260507120003 51 0 0.0 0.0 0.00 0.03 0.00 90 1019.3
20260507115503 51 0 0.0 0.0 0.00 0.03 0.00 90 1019.2
20260507115003 51 0 0.0 0.0 0.00 0.03 0.00 90 1019.3
20260507114503 51 0 0.0 0.0 0.00 0.03 0.00 90 1019.1
20260507114003 51 0 0.0 0.0 0.00 0.03 0.00 90 1019.1
20260507113503 51 0 0.0 0.0 0.00 0.03 0.00 90 1019.0
20260507113003 51 0 0.0 0.0 0.00 0.03 0.00 90 1019.1
20260507112503 51 312 0.0 1.0 0.00 0.03 0.00 90 1019.0
20260507112003 51 312 0.0 2.0 0.00 0.03 0.00 90 1019.2
20260507111503 51 312 0.0 2.0 0.00 0.03 0.00 90 1019.1
20260507111003 52 0 0.0 0.0 0.00 0.03 0.00 90 1019.4
20260507110714 52 0 0.0 0.0 0.00 0.03 0.00 90 1019.4
20260507110003 52 0 0.0 0.0 0.00 0.03 0.00 90 1019.3
20260507105503 52 0 0.0 0.0 0.00 0.03 0.00 90 1019.3
20260507105003 52 0 0.0 0.0 0.00 0.03 0.00 90 1019.3
20260507104503 52 0 0.0 0.0 0.00 0.03 0.00 90 1019.0
20260507104003 52 0 0.0 0.0 0.00 0.03 0.00 90 1018.9
20260507103503 52 0 0.0 0.0 0.00 0.03 0.00 90 1019.0
20260507103003 52 0 0.0 0.0 0.00 0.03 0.00 90 1018.8
20260507102503 52 0 0.0 0.0 0.00 0.03 0.00 89 1018.8
20260507102003 52 0 0.0 0.0 0.00 0.03 0.00 89 1018.6
20260507101503 52 0 0.0 0.0 0.00 0.03 0.00 89 1018.6
20260507101212 52 0 0.0 0.0 0.00 0.03 0.00 89 1018.5
20260507100503 52 0 0.0 0.0 0.00 0.03 0.00 89 1018.3
20260507100003 52 0 0.0 0.0 0.00 0.03 0.00 88 1018.3
20260507095503 52 0 0.0 0.0 0.00 0.03 0.00 88 1018.3
20260507095003 53 311 0.0 1.0 0.00 0.03 0.00 88 1018.1
20260507094503 53 308 0.0 2.0 0.00 0.03 0.00 88 1018.0
20260507094212 53 314 0.0 3.0 0.00 0.03 0.00 88 1018.0
20260507093713 53 323 0.0 3.0 0.00 0.03 0.00 88 1018.0
20260507093003 53 337 0.0 3.0 0.00 0.03 0.00 88 1017.8
20260507092503 53 1 0.0 3.0 0.00 0.03 0.00 88 1017.6
20260507092003 53 351 1.0 6.0 0.00 0.03 0.00 87 1017.5
20260507091503 53 338 1.0 6.0 0.00 0.03 0.00 87 1017.5
20260507091003 53 341 1.0 6.0 0.00 0.03 0.00 87 1017.4
20260507090713 53 341 1.0 6.0 0.00 0.03 0.00 87 1017.3
20260507090003 53 329 1.0 3.0 0.00 0.03 0.00 87 1017.3
20260507085503 53 324 0.0 3.0 0.00 0.03 0.00 87 1017.4
20260507085003 54 328 0.0 1.0 0.00 0.03 0.00 87 1017.5
20260507084503 54 0 0.0 0.0 0.00 0.03 0.00 86 1017.7
20260507084003 54 327 0.0 1.0 0.00 0.03 0.00 86 1017.8
20260507083713 54 327 0.0 1.0 0.00 0.03 0.00 86 1017.6
20260507083003 54 327 0.0 1.0 0.00 0.03 0.00 85 1017.6
20260507082713 54 327 0.0 1.0 0.00 0.03 0.00 85 1017.7
20260507082213 54 323 0.0 3.0 0.00 0.03 0.00 85 1017.6
20260507081712 54 322 0.0 3.0 0.00 0.03 0.00 84 1017.5
20260507081214 54 318 0.0 2.0 0.00 0.03 0.00 84 1017.6
20260507080503 55 322 0.0 4.0 0.00 0.03 0.00 84 1017.6
20260507080213 55 327 0.0 4.0 0.00 0.03 0.00 84 1017.6
20260507075503 55 334 1.0 5.0 0.00 0.03 0.00 83 1017.5
20260507075213 55 331 1.0 5.0 0.00 0.03 0.00 83 1017.4
20260507074503 55 330 0.0 4.0 0.00 0.03 0.00 83 1017.3
20260507074213 55 329 1.0 5.0 0.00 0.03 0.00 83 1017.2
20260507073712 55 320 1.0 5.0 0.00 0.03 0.00 83 1017.1
20260507073003 55 335 1.0 6.0 0.00 0.03 0.00 82 1017.1
20260507072503 55 336 1.0 6.0 0.00 0.03 0.00 82 1017.3
20260507072003 55 322 1.0 6.0 0.00 0.03 0.00 82 1017.2
20260507071712 55 329 1.0 6.0 0.00 0.03 0.00 82 1017.1
20260507071003 55 335 1.0 6.0 0.00 0.03 0.00 82 1017.1
20260507070712 55 328 1.0 5.0 0.00 0.03 0.00 82 1017.0
20260507070005 56 338 1.0 3.0 0.00 0.03 0.00 82 1017.1
20260507065503 56 342 1.0 4.0 0.00 0.03 0.00 82 1017.0
20260507065003 56 326 0.0 4.0 0.00 0.03 0.00 82 1017.0
20260507064503 56 324 1.0 5.0 0.00 0.03 0.00 82 1017.0
20260507064003 56 325 1.0 5.0 0.00 0.03 0.00 81 1017.0
20260507063503 56 338 1.0 5.0 0.00 0.03 0.00 81 1017.1
20260507063003 56 338 1.0 5.0 0.00 0.03 0.00 81 1017.0
20260507062503 56 329 0.0 2.0 0.00 0.03 0.00 81 1017.1
20260507062003 56 316 0.0 2.0 0.00 0.03 0.00 80 1017.0
20260507061503 57 320 0.0 2.0 0.00 0.03 0.00 80 1016.8
20260507061003 57 341 0.0 2.0 0.00 0.03 0.00 79 1016.8
20260507060503 57 3 0.0 3.0 0.00 0.03 0.00 79 1016.8
20260507060003 57 23 0.0 3.0 0.00 0.03 0.00 79 1016.7
20260507055503 57 52 0.0 1.0 0.00 0.03 0.00 79 1016.7
20260507055003 57 73 0.0 1.0 0.00 0.03 0.00 79 1016.8
20260507054503 57 83 0.0 3.0 0.00 0.03 0.00 79 1016.8
20260507054003 57 75 0.0 3.0 0.00 0.03 0.00 78 1016.7
20260507053714 57 63 0.0 2.0 0.00 0.03 0.00 78 1016.6
20260507053003 57 41 0.0 2.0 0.00 0.03 0.00 78 1016.6
20260507052503 57 65 0.0 2.0 0.00 0.03 0.00 78 1016.6
20260507052003 58 63 0.0 3.0 0.00 0.03 0.00 78 1016.5
20260507051503 58 54 1.0 3.0 0.00 0.03 0.00 78 1016.5
20260507051003 58 45 1.0 3.0 0.00 0.03 0.00 78 1016.5
20260507050503 58 37 1.0 6.0 0.00 0.03 0.00 77 1016.5
20260507050003 58 38 1.0 6.0 0.00 0.03 0.00 77 1016.5
20260507045503 58 36 1.0 6.0 0.00 0.03 0.03 77 1016.6
20260507045003 58 35 1.0 3.0 0.00 0.03 0.03 77 1016.6
20260507044503 58 47 1.0 3.0 0.00 0.03 0.03 77 1016.6
20260507044003 59 53 1.0 3.0 0.00 0.03 0.03 76 1016.6
20260507043713 59 50 1.0 4.0 0.00 0.03 0.03 76 1016.7
20260507043212 59 43 1.0 4.0 0.00 0.03 0.03 76 1016.6
20260507042713 59 55 1.0 4.0 0.00 0.03 0.03 76 1016.7
20260507042003 59 67 1.0 6.0 0.00 0.03 0.03 76 1016.8
20260507041503 59 52 1.0 6.0 0.00 0.03 0.03 76 1016.8
20260507041003 60 42 1.0 5.0 0.00 0.03 0.03 76 1016.9
20260507040503 60 50 1.0 5.0 0.00 0.03 0.03 75 1016.9
20260507040003 60 54 2.0 5.0 0.00 0.03 0.03 75 1016.9
20260507035503 60 54 1.0 5.0 0.00 0.03 0.03 75 1017.0
20260507035003 60 55 1.0 5.0 0.00 0.03 0.03 75 1016.9
20260507034503 60 55 1.0 6.0 0.00 0.03 0.03 74 1016.9
20260507034003 60 24 1.0 6.0 0.00 0.03 0.03 74 1016.9
20260507033503 60 18 1.0 5.0 0.00 0.03 0.03 74 1017.0
20260507033003 60 38 1.0 8.0 0.00 0.03 0.03 73 1017.0
20260507032503 60 20 1.0 8.0 0.00 0.03 0.03 73 1016.9
20260507032003 60 345 1.0 5.0 0.00 0.03 0.03 74 1016.9
20260507031503 60 352 1.0 5.0 0.00 0.03 0.03 73 1016.8
20260507031003 60 350 1.0 10.0 0.00 0.03 0.03 73 1016.9
20260507030503 60 342 1.0 10.0 0.00 0.03 0.03 74 1017.0
20260507030003 60 343 1.0 9.0 0.00 0.03 0.03 74 1016.8
20260507025503 61 339 2.0 9.0 0.00 0.03 0.03 74 1016.6
20260507025213 61 339 2.0 9.0 0.00 0.03 0.03 74 1016.6
20260507024503 61 343 2.0 9.0 0.00 0.03 0.03 74 1016.4
20260507024003 61 339 2.0 10.0 0.00 0.03 0.03 74 1016.3
20260507023503 61 334 2.0 10.0 0.00 0.03 0.03 74 1016.2
20260507023003 61 332 2.0 8.0 0.00 0.03 0.03 74 1016.2
20260507022503 62 335 2.0 8.0 0.00 0.03 0.03 74 1016.0
20260507022003 62 333 2.0 8.0 0.00 0.03 0.03 74 1015.9
20260507021503 62 329 2.0 8.0 0.00 0.03 0.03 74 1015.8
20260507021003 62 330 2.0 8.0 0.00 0.03 0.03 74 1015.6
20260507020503 62 329 2.0 9.0 0.00 0.03 0.03 74 1015.5
20260507020003 62 332 2.0 9.0 0.00 0.03 0.03 75 1015.5
20260507015503 63 335 2.0 8.0 0.00 0.03 0.03 75 1015.4
20260507015003 63 335 2.0 8.0 0.00 0.03 0.03 75 1015.2
20260507014712 63 331 1.0 6.0 0.00 0.03 0.03 75 1015.2
20260507014003 63 332 2.0 9.0 0.00 0.03 0.03 74 1015.0
20260507013503 63 345 2.0 9.0 0.00 0.03 0.03 74 1014.8
20260507013213 63 354 1.0 8.0 0.00 0.03 0.03 74 1014.8
20260507012503 63 360 1.0 6.0 0.00 0.03 0.03 74 1014.7
20260507012003 63 342 1.0 4.0 0.00 0.03 0.03 74 1014.6
20260507011503 63 4 1.0 4.0 0.00 0.03 0.03 73 1014.4
20260507010503 64 27 1.0 6.0 0.00 0.03 0.03 73 1014.4
20260507010003 64 10 1.0 6.0 0.00 0.03 0.03 73 1014.3
20260507005503 64 14 1.0 5.0 0.00 0.03 0.03 73 1014.3
20260507005003 64 18 1.0 5.0 0.00 0.03 0.03 73 1014.2
20260507004503 64 3 1.0 5.0 0.00 0.03 0.03 72 1014.1
20260507004003 64 333 1.0 6.0 0.00 0.03 0.03 72 1014.1
20260507003503 64 5 1.0 6.0 0.00 0.03 0.03 72 1014.1
20260507003003 64 22 1.0 6.0 0.00 0.03 0.03 72 1014.1
20260507002503 64 20 1.0 4.0 0.00 0.03 0.03 71 1014.1
20260507002213 65 8 1.0 5.0 0.00 0.03 0.03 71 1014.0
20260507001503 65 329 2.0 11.0 0.00 0.03 0.03 70 1014.0
20260507001003 65 332 2.0 11.0 0.00 0.03 0.03 70 1013.9
20260507000503 66 13 1.0 7.0 0.00 0.03 0.03 70 1013.8
20260507000003 66 22 1.0 7.0 0.00 0.03 0.03 70 1013.7
20260506235713 66 18 1.0 7.0 0.00 0.03 0.03 70 1013.5
20260506235003 66 18 2.0 6.0 0.00 0.03 0.03 69 1013.4
20260506234503 66 350 1.0 5.0 0.00 0.03 0.03 69 1013.5
20260506234212 66 354 1.0 6.0 0.00 0.03 0.03 69 1013.5
20260506233503 67 11 1.0 7.0 0.00 0.03 0.03 69 1013.5
20260506233212 67 31 1.0 8.0 0.00 0.03 0.03 69 1013.3
20260506232503 67 8 1.0 8.0 0.00 0.03 0.03 68 1013.2
20260506232003 67 347 1.0 9.0 0.00 0.03 0.03 69 1013.2
20260506231503 67 2 2.0 9.0 0.00 0.03 0.03 68 1013.1
20260506231003 67 351 1.0 6.0 0.00 0.03 0.03 68 1013.1
20260506230503 67 358 1.0 6.0 0.00 0.03 0.03 68 1013.1
20260506230003 68 40 1.0 4.0 0.00 0.03 0.03 67 1013.2
20260506225713 68 34 1.0 4.0 0.00 0.03 0.03 66 1013.2
20260506225003 69 28 1.0 7.0 0.00 0.03 0.03 67 1013.0
20260506224503 68 23 1.0 7.0 0.00 0.03 0.03 67 1013.0
20260506224003 68 1 1.0 5.0 0.00 0.03 0.03 67 1012.9
20260506223503 68 352 1.0 8.0 0.00 0.03 0.03 66 1012.8
20260506223003 68 356 1.0 8.0 0.00 0.03 0.03 67 1013.0
20260506222503 68 353 1.0 8.0 0.00 0.03 0.03 67 1012.8
20260506222003 68 9 1.0 8.0 0.00 0.03 0.03 67 1012.8
20260506221713 68 2 1.0 8.0 0.00 0.03 0.03 67 1012.8
20260506221003 68 355 1.0 9.0 0.00 0.03 0.03 67 1012.8
20260506220503 68 11 1.0 9.0 0.00 0.03 0.03 66 1012.9
20260506220003 68 24 1.0 4.0 0.00 0.03 0.03 66 1013.0
20260506215503 68 34 1.0 5.0 0.00 0.03 0.03 66 1013.1
20260506215003 68 33 2.0 6.0 0.00 0.03 0.03 66 1012.9
20260506214503 68 13 1.0 7.0 0.00 0.03 0.03 67 1012.9
20260506214003 68 339 1.0 7.0 0.00 0.03 0.03 67 1013.0
20260506213503 68 26 1.0 6.0 0.00 0.03 0.03 68 1012.8
20260506213003 67 45 2.0 6.0 0.00 0.03 0.03 69 1012.9
20260506212712 67 46 1.0 5.0 0.00 0.03 0.03 70 1013.0
20260506212003 66 63 1.0 7.0 0.00 0.03 0.03 70 1013.1
20260506211503 65 30 1.0 7.0 0.00 0.03 0.03 71 1013.2
20260506211003 64 335 0.0 3.0 0.00 0.03 0.03 71 1013.3
20260506210503 64 22 0.0 3.0 0.00 0.03 0.03 70 1013.5
20260506210003 64 46 1.0 4.0 0.00 0.03 0.03 70 1013.4
20260506205503 65 45 1.0 4.0 0.00 0.03 0.03 70 1013.2
20260506205003 65 53 1.0 4.0 0.00 0.03 0.03 70 1013.1
20260506204503 65 51 1.0 4.0 0.00 0.03 0.03 70 1013.2
20260506204213 65 46 1.0 4.0 0.00 0.03 0.03 70 1013.3
20260506203503 64 2 1.0 4.0 0.00 0.03 0.03 70 1013.3
20260506203003 64 10 1.0 4.0 0.00 0.03 0.03 70 1013.5
20260506202503 65 42 1.0 4.0 0.00 0.03 0.03 69 1013.6
20260506202003 64 50 1.0 4.0 0.00 0.03 0.03 70 1013.3
20260506201503 64 41 1.0 4.0 0.00 0.03 0.03 70 1013.9
20260506201213 64 47 1.0 5.0 0.00 0.03 0.03 69 1013.9
20260506200503 64 45 1.0 5.0 0.00 0.03 0.03 69 1013.9
20260506200213 64 28 1.0 4.0 0.00 0.03 0.03 68 1013.9
20260506195503 64 29 1.0 6.0 0.00 0.03 0.03 70 1014.0
20260506195003 64 47 2.0 7.0 0.00 0.03 0.03 70 1014.2
20260506194503 64 61 2.0 7.0 0.00 0.03 0.03 70 1014.2
20260506194003 63 65 1.0 4.0 0.00 0.03 0.03 70 1014.3
20260506193503 63 46 1.0 4.0 0.00 0.03 0.03 70 1014.4
20260506193003 63 41 1.0 4.0 0.00 0.03 0.03 71 1014.3
20260506192503 62 51 1.0 4.0 0.00 0.03 0.03 72 1014.4
20260506192003 62 46 1.0 4.0 0.00 0.03 0.03 72 1014.5
20260506191503 62 351 1.0 4.0 0.00 0.03 0.03 72 1014.5
20260506191213 62 348 1.0 6.0 0.00 0.03 0.03 71 1014.7
20260506190503 62 32 1.0 6.0 0.00 0.03 0.03 71 1014.6
20260506190212 62 8 1.0 6.0 0.00 0.03 0.03 71 1014.6
20260506185503 62 326 1.0 6.0 0.00 0.03 0.03 71 1014.4
20260506185213 62 331 2.0 9.0 0.00 0.03 0.03 71 1014.4
20260506184714 63 334 2.0 9.0 0.00 0.03 0.03 70 1014.3